User: anonymous   Login
Location: Ostrava
(49.8330°N, 18.2830°E)
Time: 17:05:59
(UTC+02:00)
Language:

Cosmos 1766 - Orbit

View from above orbital plane
View from above orbital plane
View from above satellite
View from above satellite

Ground track
Ground track

The orbit data is extracted from the following two-line orbital elements,

1 16881U 86055A   16239.79533411  .00000299  00000-0  16636-4 0  9998
2 16881  82.5147 311.5684 0016168  39.6267 320.6140 15.09692947637011
Epoch (UTC): 26 August 2016 19:05:16
Eccentricity: 0.0016168
inclination: 82.5147°
perigee height: 526 km
apogee height: 548 km
right ascension of ascending node: 311.5684°
argument of perigee: 39.6267°
revolutions per day: 15.09692947
mean anomaly at epoch: 320.6140°
orbit number at epoch: 63701

The dashed part of the orbit path shows where the satellite is in the earth's shadow,  

DLR